EHI
0 0 0 0 0 0 0 0 0 0 0 0 0 0 0 0 0 0 0 0 0 0 0 0 0 0 0 0 0 0 0 0 0 0 0 0 0 0 0 0 0 0 0 0
0 0 0 0 0 0 0 0 0 0 0 0 0 0 0 0 0 0 0 0 0 0 0 0 0 0 0 0 0 0 0 0 0 0 0 0 0 0 0 0 0 0 0 0
0 0 0 0 0 0 0 0 0 0 0 0 0 0 0 0 0 0 0 0 0 0 0 0 0 0 0 0 0 0 0 0 0 0 0 0 0 0 0 0 0 0 0 0
0 0 0 0 0 0 0 0 0 0 0 0 0 0 0 0 0 0 0 0 0 0 0 0 0 0 0 0 0 0 0 0 0 0 0 0 0 0 0 0 0 0 0 0
0 0 0 0 0 0 0 0 0 0 0 0 0 0 0 0 0 0 0 0 0 0 0 0 0 0 0 0 0 0 0 0 0 0 0 0 0 0 0 0 0 0 0 0
0 0 0 0 0 0 0 0 0 0 0 0 0 0 0 0 0 0 0 0 0 0 0 0 0 0 0 0 0 0 0 0 0 0 0 0 0 0 0 0 0 0 0 0
0 0 0 0 0 0 0 0 0 0 0 0 0 0 0 0 0 0 0 0 0 0 0 0 0 0 0 0 0 0 0 0 0 0 0 0 0 0 0 0 0 0 0 0
0 0 0 0 0 0 0 0 0 0 0 0 0 0 0 0 0 0 0 0 0 0 0 0 0 0 0 0 0 0 0 0 0 0 0 0 0 0 0 0 0 0 0 0
0 0 0 0 0 0 0 0 0 0 0 0 0 0 0 0 0 0 0 0 0 0 0 0 0 0 0 0 0 0 0 0 0 0 0 0 0 0 0 0 0 0 0 0
0 0 0 0 0 0 0 0 0 0 0 0 0 0 0 0 0 0 0 0 0 0 0 0 0 0 0 0 0 0 0 0 0 0 0 0 0 0 0 0 0 0 0 0
0 0 0 0 0 0 0 0 0 0 0 0 0 0 0 0 0 0 0 0 0 0 0 0 0 0 0 0 0 0 0 0 0 0 0 0 0 0 0 0 0 0 0 0
0 0 0 0 0 0 0 0 0 0 0 0 0 0 0 0 0 0 0 0 0 0 0 0 0 0 0 0 0 0 0 0 0 0 0 0 0 0 0 0 0 0 0 0
0 0 0 0 0 0 0 0 0 0 0 0 0 0 0 0 0 0 0 0 0 0 0 0 0 0 0 0 0 0 0 0 0 0 0 0 0 0 0 0 0 0 0 0
0 0 0 0 0 0 0 0 0 0 0 0 0 0 0 0 0 0 0 0 0 0 0 0 0 0 0 0 0 0 0 0 0 0 0 0 0 0 0 0 0 0 0 0
0 0 0 0 0 0 0 0 0 0 0 0 0 0 0 0 0 0 0 0 0 0 0 0 0 0 0 0 0 0 0 0 0 0 0 0 0 0 0 0 0 0 0 0
0 0 0 0 0 0 0 0 0 0 0 0 0 0 0 0 0 0 0 0 0 0 0 0 0 0 0 0 0 0 0 0 0 0 0 0 0 0 0 0 0 0 0 0
0 0 0 0 0 0 0 0 0 0 0 0 0 0 0 0 0 0 0 0 0 0 0 0 0 0 0 0 0 0 0 0 0 0 0 0 0 0 0 0 0 0 0 0
0 0 0 0 0 0 0 0 0 0 0 0 0 0 0 0 0 0 0 0 0 0 0 0 0 0 0 0 0 0 0 0 0 0 0 0 0 0 0 0 0 0 0 0
0 0 0 0 0 0 0 0 0 0 0 0 0 0 0 0 0 0 0 0 0 0 0 0 0 0 0 0 0 0 0 0 0 0 0 0 0 0 0 0 0 0 0 0
0 0 0 0 0 0 0 0 0 0 0 0 0 0 0 0 0 0 0 0 0 0 0 0 0 0 0 0 0 0 0 0 0 0 0 0 0 0 0 0 0 0 0 0
0 0 0 0 0 0 0 0 0 0 0 0 0 0 0 0 0 0 0 0 0 0 0 0 0 0 0 0 0 0 0 0 0 0 0 0 0 0 0 0 0 0 0 0
0 0 0 0 0 0 0 0 0 0 0 0 0 0 0 0 0 0 0 0 0 0 0 0 0 0 0 0 0 0 0 0 0 0 0 0 0 0 0 0 0 0 0 0
0 0 0 0 0 0 0 0 0 0 0 0 0 0 0 0 0 0 0 0 0 0 0 0 0 0 0 0 0 0 0 0 0 0 0 0 0 0 0 0 0 0 0 0
0 0 0 0 0 0 0 0 0 0 0 0 0 0 0 0 0 0 0 0 0 0 0 0 0 0 0 0 0 0 0 0 0 0 0 0 0 0 0 0 0 0 0 0
0 0 0 0 0 0 0 0 0 0 0 0 0 0 0 0 0 0 0 0 0 0 0 0 0 0 0 0 0 0 0 0 0 0 0 0 0 0 0 0 0 0 0 0
0 0 0 0 0 0 0 0 0 0 0 0 0 0 0 0 0 0 0 0 0 0 0 0 0 0 0 0 0 0 0 0 0 0 0 0 0 0 0 0 0 0 0 0
0 0 0 0 0 0 0 0 0 0 0 0 0 0 0 0 0 0 0 0 0 0 0 0 0 0 0 0 0 0 0 0 0 0 0 0 0 0 0 0 0 0 0 0
Wind_Speed
6 6 5 7 8 8 10 9 9 10 10 12 9 7 6 4 3 2 2 2 3 3 3 3 3 3 3 3 3 3 4 4 4 3 3 3 2 2 2 2 2 2 2 2
5 6 6 8 10 10 11 9 11 11 15 11 8 4 4 4 4 4 5 4 4 4 3 4 4 4 3 3 3 3 4 3 3 3 3 3 3 2 2 2 1 2 2 2
4 4 3 9 10 10 8 8 8 12 13 6 5 5 6 5 5 6 6 5 5 5 5 5 5 4 4 4 3 3 3 3 3 3 3 3 3 3 2 2 2 2 2 2
2 1 8 9 3 7 8 8 9 8 7 6 6 6 6 5 6 6 5 4 5 4 4 4 3 3 4 3 4 4 3 3 3 4 3 3 3 3 2 2 2 2 2 2
2 4 10 8 4 5 6 8 8 10 9 6 4 4 5 4 4 5 5 4 4 4 4 3 3 4 4 4 4 4 4 4 4 4 4 3 3 3 2 2 2 2 2 2
3 4 8 7 2 3 3 7 5 7 7 5 1 2 6 3 2 3 3 3 3 2 2 3 3 4 4 4 4 5 5 5 4 4 4 4 4 3 2 2 2 2 2 2
6 7 10 6 2 4 4 7 3 5 5 5 6 6 5 3 3 3 3 3 2 2 2 3 3 4 4 5 6 5 4 4 4 4 4 4 3 2 2 2 2 2 2 2
5 6 10 2 3 6 7 4 3 3 3 4 5 5 4 3 3 3 3 2 2 2 3 2 3 5 5 5 4 3 4 4 4 4 3 3 3 3 2 3 2 2 2 2
8 8 5 3 5 5 4 5 5 3 4 4 4 5 4 4 3 3 2 2 1 2 2 2 3 5 6 5 3 4 4 4 4 3 3 3 4 3 2 3 2 2 2 2
6 8 6 6 6 5 5 6 5 4 4 4 4 5 4 4 3 2 2 2 1 1 2 3 3 4 5 4 4 4 4 4 4 4 3 3 3 3 3 3 3 3 3 3
8 8 6 6 5 5 5 5 4 4 4 4 4 4 4 4 4 3 2 2 1 2 3 3 3 3 3 3 4 5 4 4 4 4 4 3 3 3 4 5 5 5 4 3
8 7 5 7 5 4 5 5 5 4 4 3 4 4 4 4 4 3 3 2 2 2 3 3 2 3 3 3 5 5 4 4 3 3 3 3 2 2 4 5 7 7 6 5
7 6 6 8 7 5 4 5 5 5 5 5 4 3 3 4 3 3 2 2 3 3 3 2 2 2 2 3 4 5 5 4 3 3 3 3 3 3 2 2 4 5 6 6
6 5 7 7 6 5 5 5 4 4 4 4 3 3 2 3 3 3 3 3 3 2 2 2 2 3 2 3 3 4 4 4 4 3 3 3 3 3 3 2 2 2 3 4
7 6 7 6 5 5 4 3 3 3 3 3 2 2 2 3 3 3 2 2 1 1 2 2 2 3 2 3 3 4 3 3 3 3 3 3 3 2 2 2 2 2 1 2
5 5 5 5 5 5 4 3 3 4 3 3 3 3 2 2 2 2 2 1 1 2 3 2 3 3 2 3 3 3 3 5 4 3 2 2 2 3 3 2 2 2 2 1
4 5 4 5 5 5 5 4 4 4 3 3 3 2 1 1 1 2 2 2 2 2 2 3 3 2 2 2 3 2 2 3 4 3 3 3 3 3 3 3 2 2 2 2
5 6 5 5 5 5 4 3 3 3 3 3 2 1 1 2 2 2 2 1 1 1 2 2 2 2 2 2 2 2 2 2 2 3 3 3 3 2 2 2 2 2 1 1
4 4 3 3 3 3 3 3 3 2 2 1 1 2 2 2 2 2 1 1 1 1 2 1 1 1 1 2 2 2 2 2 2 2 2 3 2 2 2 2 2 2 2 1
3 2 2 2 2 1 2 2 1 1 1 1 1 1 1 1 1 1 1 1 1 2 2 1 1 1 1 2 2 2 2 3 2 2 2 2 2 2 2 2 2 2 1 1
2 2 2 2 2 1 1 1 0 1 1 0 1 2 1 1 1 1 1 1 2 1 1 1 0 0 1 1 2 2 2 2 2 2 2 2 2 2 2 2 2 2 2 1
2 2 2 1 2 2 2 1 1 0 1 0 0 1 1 1 1 0 0 1 1 1 1 0 0 1 1 1 1 1 1 1 1 1 2 2 2 2 2 2 2 2 2 2
2 1 1 1 1 1 2 2 1 1 1 1 1 1 1 0 0 0 1 1 1 1 1 0 0 1 2 1 1 1 1 1 1 1 1 2 2 2 2 2 2 2 2 2
1 1 1 1 2 2 2 2 2 2 2 2 2 1 1 1 1 1 1 1 1 2 1 1 1 2 2 1 1 1 1 1 1 1 1 1 2 2 2 2 2 2 2 2
1 1 2 2 1 1 1 2 3 3 3 3 3 3 2 1 1 1 1 1 2 3 2 2 2 3 2 1 1 0 0 1 1 1 1 1 1 1 1 1 1 1 1 1
1 1 1 1 0 0 1 1 1 1 1 2 2 3 2 2 2 2 2 2 2 3 2 1 1 2 1 1 1 0 0 0 0 0 1 1 1 1 1 1 2 1 1 2
2 1 1 2 2 1 1 1 1 1 1 1 1 2 2 2 2 2 2 2 2 2 2 2 1 1 1 1 1 1 1 1 0 0 1 1 1 1 1 1 1 1 1 2
Wind_Direction
250 258 244 241 238 220 217 216 223 244 250 267 272 273 273 274 284 288 284 263 242 236 232 217 209 201 196 194 181 169 168 178 191 188 176 174 176 182 184 186 196 198 191 196
267 263 256 258 248 233 235 231 238 258 268 264 267 268 270 267 268 274 275 262 244 238 230 222 216 209 198 197 190 170 175 186 178 168 168 174 175 170 167 175 182 182 194 199
261 286 307 260 233 213 221 214 205 235 253 271 276 262 252 252 253 258 262 258 242 234 228 222 215 204 198 195 181 172 179 183 175 173 176 180 175 167 174 181 183 191 204 205
248 341 247 249 215 198 213 230 219 237 261 261 257 268 265 250 240 248 248 247 247 241 233 224 209 195 189 179 176 179 181 186 182 178 182 178 172 180 185 184 187 201 214 221
202 245 273 282 240 183 198 253 226 233 255 268 282 307 292 266 228 229 236 239 241 239 230 216 204 188 172 177 180 184 190 193 191 182 182 179 182 189 189 183 197 210 216 217
196 226 248 256 241 184 141 272 249 218 240 251 196 267 272 279 259 258 258 246 235 230 219 215 209 176 170 184 189 201 201 197 190 185 184 190 192 189 187 190 203 212 232 230
215 240 261 257 224 126 179 250 259 219 227 216 215 234 257 284 281 267 263 253 235 218 222 225 198 171 182 191 207 208 191 183 183 187 190 190 183 178 177 186 186 209 239 254
192 227 255 237 143 191 232 274 281 256 232 223 241 259 267 272 273 278 280 268 232 220 238 230 190 181 195 211 212 185 175 178 186 188 188 178 172 179 178 178 188 212 236 264
204 225 254 216 219 245 263 273 275 258 249 225 248 264 271 267 267 273 273 269 252 221 242 238 200 190 202 214 186 174 175 182 185 183 183 178 178 181 179 183 196 216 223 244
255 263 266 267 271 275 271 265 272 272 259 247 253 265 270 264 264 267 274 263 248 220 231 244 217 205 208 202 178 170 180 184 180 180 185 185 189 188 189 197 203 215 225 237
259 274 289 276 254 264 279 282 283 284 262 244 244 259 259 265 265 263 269 257 228 221 233 242 224 214 207 190 173 173 181 183 184 187 187 192 201 205 206 212 210 213 220 222
242 249 244 268 271 271 273 277 274 277 282 270 240 245 260 266 267 265 265 258 247 241 238 243 224 219 209 189 175 172 183 188 188 187 189 192 200 230 239 233 237 239 240 238
252 267 259 273 281 271 263 274 277 266 258 266 261 244 246 256 262 262 256 252 244 242 237 230 220 227 218 188 179 183 190 192 188 188 190 194 197 203 226 256 247 243 241 243
261 269 274 270 271 277 272 277 279 273 262 251 253 253 246 252 259 260 254 251 244 241 240 226 222 240 227 189 183 190 192 199 195 193 194 196 203 208 206 210 232 254 254 252
264 255 257 270 275 277 274 270 276 278 275 272 254 243 239 243 252 261 261 258 243 235 245 236 239 254 229 188 186 190 191 195 194 193 196 197 198 200 202 209 218 230 263 266
284 282 270 266 268 275 273 256 255 267 269 266 262 255 243 238 252 265 263 236 217 241 247 243 249 252 220 187 185 189 199 206 197 191 190 191 195 196 195 201 209 213 222 228
277 281 278 279 277 278 271 256 246 255 259 257 255 255 244 239 261 263 263 252 235 246 248 237 243 243 209 189 186 191 193 201 201 193 191 197 198 200 199 198 205 214 229 223
252 256 256 255 256 268 276 271 255 246 242 247 252 249 238 228 235 251 263 272 288 297 282 259 239 222 202 189 185 186 189 193 192 192 192 194 197 197 193 194 202 207 225 234
279 276 275 271 259 252 259 265 258 249 247 233 224 233 236 233 231 240 234 203 215 276 292 285 243 182 199 204 184 173 176 178 177 180 184 196 195 188 190 195 200 205 209 218
300 301 303 305 298 266 266 276 275 265 255 214 194 202 234 241 216 196 175 206 242 251 263 263 233 182 196 189 172 164 168 172 175 178 180 183 184 186 188 194 197 197 202 216
308 319 331 333 338 342 325 298 248 265 286 203 184 200 219 238 177 161 158 279 294 278 261 243 183 208 190 170 153 150 160 166 173 177 180 181 181 187 192 192 196 204 212 225
310 321 335 351 11 2 355 7 34 42 29 40 92 132 132 130 124 91 280 251 274 313 3 40 292 200 150 120 129 140 148 155 164 169 178 181 183 190 199 199 204 213 214 220
318 335 6 20 29 9 7 18 30 54 63 65 85 125 146 178 212 197 296 302 312 4 27 357 248 114 101 90 117 134 148 155 162 173 184 186 190 193 199 203 208 207 209 224
353 16 30 37 51 56 28 8 18 33 43 40 33 35 71 74 20 359 327 312 356 31 39 24 55 76 68 67 97 124 155 166 178 182 181 184 190 194 200 203 207 212 215 221
17 34 56 63 56 41 38 39 42 42 45 41 31 24 20 24 44 3 15 30 55 50 43 53 66 57 53 61 75 104 158 201 203 188 183 189 196 201 206 207 209 220 226 233
28 40 42 42 51 82 76 72 62 47 47 42 25 19 19 26 44 43 39 38 48 45 38 36 44 45 44 48 49 42 7 281 283 205 196 208 211 216 217 217 221 228 233 240
38 51 58 46 34 39 55 68 79 39 21 47 23 12 18 24 32 35 36 31 29 29 26 23 30 39 37 32 28 15 356 337 309 255 232 229 226 222 219 223 235 238 242 246